[[{"header":{"parameterUnit":"m.s-1","parameterCategory":1,"la1":30.2991,"la2":30.254,"lo1":-89.0895,"lo2":-89.0444,"dy":0.0017,"dx":0.0017,"nx":28,"ny":28,"refTime":"2025-03-09T21:00:00:Z","depth":0,"parameterNumber":2,"parameterNumberName":"U-component_of_WINDS"},"data":[0,0,0,0,0,0,0,0,0,0,0,0,0,0,0,0,0,0,0,0,0,0,0,0,0,0,0,0,0,0,0,0,0,0,0,0,0,0,0,0,0,0,0,0,0,0,0,0,0,0,0,0,0,0,0,0,0,0,3.4357,3.4359,0,3.4472,3.4473,3.4474,3.4438,3.4436,3.4434,3.4431,3.4551,3.4556,3.4561,0,0,0,0,0,0,0,0,0,0,0,0,0,3.4112,3.4117,3.4357,3.4359,3.436,3.4471,3.4473,3.4475,3.4439,3.4436,3.4433,3.443,3.4549,3.4555,3.4562,0,0,0,0,0,0,0,0,0,0,0,0,0,3.4222,3.4119,3.4357,3.4356,3.4357,3.4471,3.4473,3.4475,3.444,3.4436,3.4432,3.4429,3.4547,3.4555,3.4563,3.4686,0,0,3.4588,3.4591,0,0,0,0,0,0,0,0,3.4216,3.4231,3.4355,3.4356,3.4357,3.4437,3.443,3.4546,3.444,3.4408,3.4431,3.4427,3.4516,3.4526,3.4556,3.4692,3.4697,3.4588,3.4593,3.4597,3.4599,0,0,0,0,0,0,0,3.4208,3.4226,3.4403,3.4356,3.4358,3.4351,3.4362,3.4452,3.4481,3.4411,3.4408,3.4422,3.4516,3.4548,3.4559,3.4699,3.4588,3.4596,3.4601,3.4604,3.4945,3.4949,0,0,0,0,0,0,3.4199,3.422,3.4399,3.4406,3.4276,3.4358,3.4371,3.4415,3.448,3.4486,3.4425,3.442,3.4536,3.4549,3.4563,3.4714,3.4597,3.4605,3.4609,3.4941,3.4946,3.495,0,0,0,0,0,0,3.4194,3.4216,3.4394,3.4312,3.4335,3.4366,3.4416,3.4419,3.4451,3.4491,3.4496,3.4452,3.4534,3.4551,3.4656,3.4717,3.4608,3.4616,3.4936,3.4942,3.4948,3.5015,0,0,0,0,0,0,3.4187,3.4214,3.426,3.4314,3.4339,3.4485,3.442,3.4424,3.4465,3.446,3.4518,3.4524,3.4532,3.4644,3.4664,3.4726,3.4622,3.493,3.4939,3.4946,3.5008,3.5023,3.5036,0,0,0,0,0,3.4179,3.4274,3.4263,3.4284,3.4397,3.4489,3.4503,3.451,3.447,3.4518,3.4544,3.4522,3.4707,3.4655,3.4678,3.4743,3.4927,3.4936,3.4945,3.5001,3.502,3.5036,0,0,0,0,0,0,3.4227,3.4281,3.4269,3.4384,3.4432,3.4482,3.4542,3.4529,3.4589,3.4582,3.4588,3.4602,3.471,3.4737,3.4678,3.4868,3.4811,3.4825,3.4846,3.4864,3.4878,3.487,3.4629,0,0,0,0,0,3.4251,3.432,3.4364,3.4462,3.4486,3.4511,3.455,3.4551,3.4602,3.4622,3.4655,3.4706,3.4775,3.4821,3.4887,3.5011,3.5025,3.5067,3.5081,3.5093,3.5106,3.5176,3.5197,3.4981,3.4981,3.4981,0,0,3.4302,3.434,3.4383,3.4473,3.451,3.4583,3.4528,3.4606,3.4661,3.4634,3.4736,3.4762,3.4819,3.4935,3.4988,3.4961,3.5168,3.5105,3.5114,3.512,3.5188,3.5209,3.5227,3.4987,3.4986,3.4985,0,0,3.4432,3.4467,3.4553,3.4592,3.4649,3.4665,3.4686,3.4739,3.4755,3.4857,3.484,3.4905,3.5024,3.5066,3.5103,3.5251,3.5235,3.5273,3.5347,3.5416,3.5433,3.5448,3.5504,3.5523,3.5285,3.5285,3.5285,0,3.4488,3.4596,3.46,3.4681,3.4722,3.4701,3.479,3.4827,3.4903,3.4933,3.4901,3.5052,3.5088,3.5215,3.5252,3.5282,3.5308,3.5267,3.543,3.5445,3.546,3.5513,3.5533,3.5289,3.5289,3.5289,3.5288,0,3.4664,3.4739,3.4802,3.4876,3.4924,3.5009,3.5027,3.5076,3.5073,3.5093,3.5199,3.5242,3.5318,3.5347,3.5345,3.5475,3.5457,3.5428,3.5372,3.5485,3.5535,3.5555,3.5296,3.5294,3.5293,3.5292,0,0,3.4827,3.4903,3.4927,3.4962,3.5024,3.5083,3.5167,3.5241,3.5284,3.5337,3.541,3.5512,3.5486,3.5529,3.5531,3.5591,3.571,3.5555,3.5557,3.5584,3.5859,3.5882,3.5905,3.5698,3.5702,3.5705,3.5855,0,3.4964,3.5112,3.5119,3.5255,3.5326,3.5308,3.5382,3.5429,3.5451,3.5515,3.5538,3.5612,3.5571,3.5596,3.5655,3.5683,3.5765,3.5672,3.5769,3.5772,3.5757,3.5931,3.5955,3.6094,3.5874,3.5877,3.588,0,3.5144,3.5204,3.5346,3.5401,3.5431,3.5497,3.5567,3.5628,3.5682,3.5693,3.5742,3.5736,3.5825,3.5765,3.5889,3.5825,3.5865,3.5885,3.5891,3.5902,3.5834,3.5949,3.6138,3.616,3.591,3.5908,3.5906,0,3.5252,3.5368,3.5469,3.5499,3.5564,3.5612,3.5642,3.5692,3.5737,3.5798,3.5827,3.5898,3.5937,3.5993,3.6008,3.5962,3.6133,3.6073,3.6147,3.6147,3.6185,3.6182,3.6385,3.6207,3.6207,3.6206,3.6206,0,3.5406,3.5495,3.5519,3.5582,3.5681,3.5689,3.5788,3.5815,3.586,3.5929,3.5917,3.5982,3.5996,3.6065,3.6077,3.6179,3.6196,3.621,3.6212,3.6212,3.6211,3.624,3.6231,3.6212,3.621,3.6209,3.6208,0,3.5544,3.5564,3.5673,3.5727,3.5742,3.5814,3.586,3.5921,3.5941,3.6028,3.6049,3.6081,3.6161,3.6181,3.6276,3.6284,3.6407,3.6399,3.6388,3.6389,3.6462,3.6456,3.6693,3.6725,3.6523,3.6525,3.6527,0,3.5642,3.571,3.5771,3.5816,3.5848,3.592,3.5966,3.5977,3.6025,3.6093,3.6147,3.6226,3.6289,3.6419,3.6451,3.6525,3.652,3.6598,3.6531,3.653,3.6524,3.6521,3.6529,3.6611,3.6613,3.6615,3.6617,0,3.5815,3.5821,3.5887,3.5958,3.6013,3.6069,3.6123,3.616,3.6179,3.6235,3.6316,3.6366,3.6464,3.6543,3.6618,3.665,3.6638,3.6637,3.6659,3.666,3.6653,3.666,3.6426,3.6632,3.6631,3.6629,3.6629,3.6628,3.5937,3.5998,3.6051,3.6126,3.6167,3.6218,3.6279,3.6307,3.6375,3.6455,3.6458,3.6548,3.6602,3.6701,3.6738,3.6809,3.6786,3.6816,3.6824,3.6832,3.684,3.6639,3.6822,3.6822,3.6822,3.6821,3.6821,0,3.6111,3.6145,3.6213,3.6289,3.6349,3.6331,3.639,3.6441,3.652,3.6572,3.6635,3.6731,3.6808,3.6847,3.6924,3.6974,3.6971,3.6994,3.6992,3.7,3.6855,3.683,3.6996,3.6996,3.6996,3.6996,3.6996,3.6996,3.6209,3.6312,3.6325,3.6449,3.6482,3.657,3.6605,3.6653,3.6695,3.6801,3.6866,3.689,3.6938,3.7018,3.7089,3.7099,3.7129,3.7156,3.7163,3.7028,3.701,3.6993,3.6969,3.7162,3.7162,3.7303,3.7304,3.7305]},{"header":{"parameterUnit":"m.s-1","parameterCategory":1,"la1":30.2991,"la2":30.254,"lo1":-89.0895,"lo2":-89.0444,"dy":0.0017,"dx":0.0017,"nx":28,"ny":28,"refTime":"2025-03-09T21:00:00:Z","depth":0,"parameterNumber":3,"parameterNumberName":"V-component_of_WINDS"},"data":[0,0,0,0,0,0,0,0,0,0,0,0,0,0,0,0,0,0,0,0,0,0,0,0,0,0,0,0,0,0,0,0,0,0,0,0,0,0,0,0,0,0,0,0,0,0,0,0,0,0,0,0,0,0,0,0,0,0,-1.446,-1.4461,0,-1.4611,-1.4613,-1.4615,-1.4678,-1.4678,-1.4678,-1.4677,-1.4834,-1.4838,-1.4843,0,0,0,0,0,0,0,0,0,0,0,0,0,-1.4229,-1.4232,-1.4459,-1.4461,-1.4463,-1.4611,-1.4613,-1.4615,-1.4678,-1.4678,-1.4677,-1.4677,-1.4832,-1.4838,-1.4843,0,0,0,0,0,0,0,0,0,0,0,0,0,-1.4349,-1.4234,-1.4459,-1.4512,-1.4519,-1.4611,-1.4613,-1.4616,-1.4678,-1.4678,-1.4677,-1.4677,-1.4831,-1.4837,-1.4844,-1.4894,0,0,-1.4864,-1.4867,0,0,0,0,0,0,0,0,-1.4342,-1.4358,-1.4503,-1.4509,-1.4516,-1.4625,-1.4589,-1.4709,-1.4678,-1.4618,-1.4677,-1.4677,-1.4765,-1.4777,-1.4807,-1.4901,-1.4908,-1.4865,-1.4869,-1.4872,-1.4874,0,0,0,0,0,0,0,-1.4334,-1.4352,-1.452,-1.4505,-1.4513,-1.453,-1.4547,-1.4612,-1.4692,-1.4623,-1.4628,-1.4645,-1.4769,-1.48,-1.4811,-1.491,-1.4865,-1.4871,-1.4875,-1.4877,-1.5059,-1.506,0,0,0,0,0,0,-1.4316,-1.4344,-1.4515,-1.4524,-1.4426,-1.4535,-1.4553,-1.4591,-1.4692,-1.4706,-1.4645,-1.4647,-1.4789,-1.4803,-1.4816,-1.4885,-1.4872,-1.4878,-1.4882,-1.5058,-1.5059,-1.506,0,0,0,0,0,0,-1.4311,-1.4331,-1.4509,-1.4436,-1.446,-1.4539,-1.4581,-1.4594,-1.4625,-1.4708,-1.4723,-1.4662,-1.4789,-1.4807,-1.4875,-1.4891,-1.4881,-1.4887,-1.5057,-1.5058,-1.5059,-1.502,0,0,0,0,0,0,-1.4304,-1.4329,-1.4347,-1.4436,-1.4463,-1.4563,-1.4582,-1.4597,-1.4637,-1.4641,-1.4728,-1.4742,-1.479,-1.4865,-1.4882,-1.49,-1.4892,-1.5056,-1.5058,-1.5059,-1.502,-1.502,-1.5019,0,0,0,0,0,-1.4296,-1.433,-1.4348,-1.4368,-1.4488,-1.4564,-1.458,-1.4634,-1.4637,-1.4658,-1.4712,-1.474,-1.4886,-1.4871,-1.4891,-1.4911,-1.5055,-1.5057,-1.5059,-1.502,-1.502,-1.5019,0,0,0,0,0,0,-1.4241,-1.4342,-1.4364,-1.4427,-1.4487,-1.4575,-1.4602,-1.4631,-1.4691,-1.4692,-1.4757,-1.4776,-1.484,-1.4882,-1.4864,-1.4967,-1.4973,-1.4979,-1.4937,-1.4937,-1.4937,-1.4926,-1.4898,0,0,0,0,0,-1.4236,-1.4289,-1.4375,-1.4422,-1.4451,-1.4521,-1.4556,-1.4593,-1.4658,-1.4683,-1.4742,-1.4804,-1.4865,-1.4903,-1.4963,-1.5027,-1.5048,-1.5051,-1.505,-1.5049,-1.5054,-1.5094,-1.5097,-1.5066,-1.5066,-1.5066,0,0,-1.4227,-1.4289,-1.4318,-1.4413,-1.4463,-1.4518,-1.4542,-1.4598,-1.464,-1.4692,-1.476,-1.4806,-1.488,-1.4947,-1.4979,-1.4984,-1.5067,-1.5052,-1.505,-1.5056,-1.5096,-1.5099,-1.5102,-1.5067,-1.5067,-1.5067,0,0,-1.4239,-1.429,-1.4336,-1.4387,-1.4464,-1.4511,-1.4522,-1.4607,-1.4639,-1.4709,-1.475,-1.4801,-1.4903,-1.4956,-1.4995,-1.503,-1.5059,-1.5048,-1.5046,-1.5084,-1.5087,-1.5089,-1.5104,-1.5108,-1.5052,-1.5052,-1.5052,0,-1.4218,-1.43,-1.4357,-1.4412,-1.4453,-1.4504,-1.4553,-1.46,-1.4692,-1.472,-1.4725,-1.4856,-1.491,-1.4991,-1.5,-1.5029,-1.5046,-1.5039,-1.5081,-1.5085,-1.5088,-1.5103,-1.5108,-1.505,-1.5051,-1.5051,-1.5051,0,-1.4272,-1.4329,-1.4358,-1.4447,-1.4492,-1.4543,-1.4609,-1.4649,-1.4682,-1.4729,-1.4801,-1.4867,-1.4943,-1.4965,-1.4997,-1.5052,-1.5054,-1.5069,-1.5076,-1.5088,-1.5104,-1.511,-1.5048,-1.5049,-1.5049,-1.505,0,0,-1.4252,-1.4373,-1.4383,-1.4425,-1.4515,-1.4561,-1.4616,-1.4691,-1.4724,-1.4787,-1.4837,-1.4923,-1.4939,-1.4984,-1.5024,-1.5057,-1.5084,-1.5069,-1.5072,-1.5071,-1.5152,-1.5141,-1.5147,-1.5104,-1.5105,-1.5106,-1.5147,0,-1.4277,-1.4377,-1.4431,-1.4509,-1.4565,-1.4615,-1.4664,-1.4725,-1.4771,-1.4826,-1.4877,-1.4939,-1.4954,-1.4982,-1.5017,-1.5073,-1.5102,-1.5071,-1.5152,-1.5155,-1.5134,-1.5154,-1.5142,-1.5178,-1.5153,-1.5154,-1.5155,0,-1.4319,-1.4382,-1.4466,-1.4552,-1.4578,-1.462,-1.4695,-1.4746,-1.4817,-1.4849,-1.4901,-1.494,-1.5003,-1.5005,-1.5094,-1.5072,-1.5109,-1.5142,-1.5145,-1.5155,-1.5156,-1.5168,-1.519,-1.5196,-1.5164,-1.5163,-1.5163,0,-1.4299,-1.4404,-1.4469,-1.4503,-1.4605,-1.4635,-1.4679,-1.475,-1.4792,-1.4858,-1.4887,-1.4958,-1.4998,-1.5054,-1.5112,-1.5108,-1.5196,-1.5203,-1.5226,-1.5225,-1.5243,-1.5241,-1.5273,-1.5264,-1.5264,-1.5264,-1.5263,0,-1.4321,-1.4371,-1.4462,-1.4501,-1.456,-1.4623,-1.4679,-1.4727,-1.4791,-1.4843,-1.4891,-1.4938,-1.5012,-1.507,-1.5116,-1.5185,-1.5202,-1.5231,-1.5243,-1.5227,-1.5224,-1.5253,-1.5253,-1.5265,-1.5265,-1.5264,-1.5264,0,-1.4308,-1.437,-1.4445,-1.4536,-1.456,-1.46,-1.4679,-1.4721,-1.477,-1.4836,-1.4855,-1.4933,-1.5004,-1.5068,-1.5161,-1.5193,-1.5263,-1.5277,-1.5239,-1.5246,-1.5267,-1.5264,-1.532,-1.5331,-1.5312,-1.5312,-1.5312,0,-1.4319,-1.4359,-1.4455,-1.4493,-1.4537,-1.4597,-1.4641,-1.4706,-1.475,-1.4837,-1.4869,-1.4944,-1.5007,-1.5118,-1.5184,-1.5257,-1.5274,-1.5289,-1.5286,-1.527,-1.5278,-1.5275,-1.5281,-1.5288,-1.5288,-1.5288,-1.5288,0,-1.4333,-1.4363,-1.4424,-1.4498,-1.4549,-1.461,-1.4672,-1.4701,-1.4778,-1.4826,-1.4899,-1.4948,-1.5045,-1.512,-1.52,-1.5248,-1.5282,-1.5289,-1.5299,-1.5284,-1.5261,-1.5276,-1.5239,-1.5287,-1.5287,-1.5287,-1.5287,-1.5287,-1.4334,-1.4373,-1.4448,-1.4516,-1.457,-1.4628,-1.4673,-1.4729,-1.4791,-1.4875,-1.491,-1.4985,-1.506,-1.5172,-1.522,-1.5281,-1.5287,-1.5301,-1.5304,-1.5307,-1.5306,-1.525,-1.5295,-1.5296,-1.5296,-1.5296,-1.5296,0,-1.4352,-1.4403,-1.4465,-1.4552,-1.4606,-1.4633,-1.4705,-1.4749,-1.4815,-1.4881,-1.4943,-1.5029,-1.5103,-1.5176,-1.5253,-1.5289,-1.5307,-1.5307,-1.5306,-1.5317,-1.5294,-1.5279,-1.5292,-1.5292,-1.5292,-1.5292,-1.5292,-1.5292,-1.4368,-1.4436,-1.4475,-1.4573,-1.4624,-1.4698,-1.4737,-1.4792,-1.4846,-1.494,-1.5002,-1.5049,-1.5119,-1.5203,-1.5273,-1.5293,-1.532,-1.5317,-1.5341,-1.5318,-1.5318,-1.5318,-1.5304,-1.5322,-1.5322,-1.5359,-1.536,-1.536]}]]